Stations météo

Publicité
Clermont-Ferrand, France (7460): Température de l'air & dewpoint: 15.07.2019 16:00:00 - 21.07.2019 16:00:00 (CEST)Clermont-Ferrand, France (7460): Température de l'air 5cm: 15.07.2019 16:00:00 - 21.07.2019 16:00:00 (CEST)Clermont-Ferrand, France (7460): Température de l'air -20cm & Température de l'air -100cm: 15.07.2019 16:00:00 - 21.07.2019 16:00:00 (CEST)Clermont-Ferrand, France (7460): Vitesse du vent & gusts: 15.07.2019 16:00:00 - 21.07.2019 16:00:00 (CEST)Clermont-Ferrand, France (7460): Direction du vent: 15.07.2019 16:00:00 - 21.07.2019 16:00:00 (CEST)Clermont-Ferrand, France (7460): reduced air pressure: 15.07.2019 16:00:00 - 21.07.2019 16:00:00 (CEST)Clermont-Ferrand, France (7460): visibility: 15.07.2019 16:00:00 - 21.07.2019 16:00:00 (CEST)Clermont-Ferrand, France (7460): Ensoleillement: 15.07.2019 16:00:00 - 21.07.2019 16:00:00 (CEST)Clermont-Ferrand, France (7460): Quantités de précipitations: 15.07.2019 16:00:00 - 21.07.2019 16:00:00 (CEST)
Date & Time tt [°C] td [°C] tt 5cm [°C] tt -20cm [°C] tt -100cm [°C] ff [km/h] ff [knt] fx [km/h] fx [knt] dd ppp [hPa] vv [km] sd [min] rr [mm]
21.07.2019 16:00:00 31,1 15,1 35,2 22,3 18,9 6 3 32 17 NE 1018,8 30 30 0,0
21.07.2019 15:00:00 30,5 15,8 33,9 22,3 18,9 8 4 19 10 N 1019,1 50 27 0,0
21.07.2019 14:00:00 29,0 15,2 32,1 22,3 18,9 6 3 22 12 NE 1019,7 33 15 0,0
21.07.2019 13:00:00 29,1 16,0 35,3 22,3 18,9 8 4 18 10 ESE 1020,0 28 60 0,0
21.07.2019 12:00:00 26,8 15,8 33,2 22,3 18,9 7 4 19 10 ENE 1020,6 31 60 0,0
21.07.2019 11:00:00 25,1 16,0 29,7 22,3 18,9 8 4 17 9 E 1021,1 29 54 0,0
21.07.2019 10:00:00 24,2 15,4 24,6 22,3 18,9 4 2 13 7 - 1021,1 10 50 0,0
21.07.2019 09:00:00 22,4 15,5 22,6 22,3 18,9 6 3 14 7 NNE 1021,4 42 1 0,0
21.07.2019 08:00:00 21,7 15,5 21,4 22,3 18,9 6 4 14 7 NE 1021,1 38 0 0,0
21.07.2019 07:00:00 21,4 15,7 21,1 22,3 18,9 6 3 20 11 NE 1020,6 37 0 0,0
21.07.2019 06:00:00 21,6 15,9 21,3 22,3 18,9 11 6 23 12 N 1020,1 40 0 0,0
21.07.2019 05:00:00 22,6 15,7 21,7 22,3 18,9 8 4 13 7 ENE 1019,5 50 0 0,0
21.07.2019 04:00:00 22,9 15,5 22,2 22,3 18,9 7 4 23 12 NW 1019,3 41 0 0,0
21.07.2019 03:00:00 23,6 15,4 23,0 22,3 18,9 11 6 26 14 NW 1019,2 41 0 0,0
21.07.2019 02:00:00 23,9 15,4 23,4 22,3 18,9 15 8 28 15 NW 1019,0 36 0 0,0
21.07.2019 01:00:00 24,5 17,2 24,1 22,2 18,9 13 7 26 14 NNW 1018,3 29 0 0,0
21.07.2019 00:00:00 25,6 17,3 24,4 22,2 18,9 10 5 26 14 W 1017,6 26 0 0,0
20.07.2019 23:00:00 26,0 17,1 23,7 22,1 18,9 9 5 22 12 W 1016,7 27 0 0,0
20.07.2019 22:00:00 26,9 17,1 25,3 22,1 18,9 9 5 26 14 W 1015,9 1,9 3 0,0
20.07.2019 21:00:00 28,2 16,5 27,7 22,1 18,9 16 9 34 18 WSW 1014,5 35 22 0,0
20.07.2019 20:00:00 29,5 16,0 29,7 22,0 18,9 22 12 38 21 W 1013,6 27 12 0,0
20.07.2019 19:00:00 31,3 14,9 33,5 22,0 18,9 19 10 48 26 W 1012,6 19 60 0,0
20.07.2019 18:00:00 32,0 13,7 33,3 22,0 18,9 29 16 41 22 W 1012,4 22 50 0,0
20.07.2019 17:00:00 33,0 12,1 35,0 22,1 18,9 14 8 32 18 W 1012,4 25 49 0,0
20.07.2019 16:00:00 32,8 11,3 36,8 22,0 18,9 10 6 26 14 WSW 1012,7 27 49 0,0
20.07.2019 15:00:00 31,0 12,4 33,2 22,1 18,9 11 6 31 17 S 1013,1 12 27 0,0
20.07.2019 14:00:00 30,3 11,3 32,0 22,1 18,9 16 9 36 19 S 1013,1 10 22 0,0
20.07.2019 13:00:00 29,6 11,2 31,2 22,1 18,9 23 12 39 21 SSE 1013,4 10 25 0,0
20.07.2019 12:00:00 28,7 11,3 24,5 22,2 18,9 22 12 38 21 SSE 1013,9 11 37 0,0
20.07.2019 11:00:00 23,6 13,5 19,1 22,2 18,9 21 11 46 25 S 1013,9 11 0 0,0
20.07.2019 10:00:00 21,0 12,7 16,8 22,2 18,8 28 15 44 24 S 1015,3 6 0 -
20.07.2019 09:00:00 22,4 11,8 20,8 22,3 18,9 5 3 14 8 S 1015,0 31 4 0,0
20.07.2019 08:00:00 20,8 11,1 18,9 22,3 18,9 8 4 34 18 W 1014,4 17 42 0,0
20.07.2019 07:00:00 19,9 10,9 16,2 22,3 18,9 6 3 20 11 SSE 1013,1 25 17 0,0
20.07.2019 06:00:00 19,2 10,5 18,0 22,2 18,9 6 3 17 9 ESE 1012,6 41 0 0,0
20.07.2019 05:00:00 20,3 10,4 18,7 22,2 18,8 10 5 42 23 S 1012,5 42 0 0,0
20.07.2019 04:00:00 21,6 10,7 19,3 22,2 18,9 27 14 40 22 S 1012,2 42 0 0,0
20.07.2019 03:00:00 21,5 11,5 19,1 22,2 18,8 17 9 29 16 S 1012,3 43 0 0,0
20.07.2019 02:00:00 21,4 11,7 17,8 22,2 18,9 16 9 24 13 S 1012,5 40 0 0,0
20.07.2019 01:00:00 20,1 12,1 16,4 22,1 18,8 6 3 14 8 SE 1012,8 39 0 0,0
20.07.2019 00:00:00 22,1 12,1 17,0 22,0 18,8 8 5 13 7 W 1012,5 20 0 0,0
19.07.2019 23:00:00 21,8 12,9 16,9 22,0 18,8 7 4 10 6 SW 1012,7 35 0 0,0
19.07.2019 22:00:00 25,1 13,0 18,9 21,9 18,9 5 3 9 5 NW 1012,1 6 5 0,0
19.07.2019 21:00:00 27,6 12,0 27,6 21,9 18,9 6 4 11 6 NNE 1011,5 48 60 0,0
19.07.2019 20:00:00 29,9 10,4 33,9 21,8 18,9 7 4 17 9 NE 1011,3 33 60 0,0
19.07.2019 19:00:00 30,5 10,5 34,8 21,8 18,9 9 5 23 12 NE 1011,6 30 60 0,0
19.07.2019 18:00:00 30,1 10,1 35,7 21,7 18,8 10 5 21 12 NE 1012,3 24 60 0,0
19.07.2019 17:00:00 30,0 10,5 36,4 21,7 18,9 12 7 24 13 NE 1012,8 24 60 0,0
19.07.2019 16:00:00 29,2 10,3 35,6 21,7 18,8 8 5 28 15 NNE 1013,3 26 60 0,0
19.07.2019 15:00:00 28,6 10,7 34,5 21,7 18,8 10 5 27 15 N 1014,0 27 60 0,0
19.07.2019 14:00:00 27,3 10,1 34,3 21,8 18,8 8 4 22 12 ENE 1014,8 20 60 0,0
19.07.2019 13:00:00 26,1 11,4 32,3 21,8 18,8 9 5 28 15 SE 1015,6 39 60 0,0
19.07.2019 12:00:00 24,7 10,6 28,0 21,9 18,8 8 4 19 10 ENE 1016,2 34 53 0,0
19.07.2019 11:00:00 23,6 11,0 29,1 21,9 18,8 9 5 18 10 ENE 1016,7 28 60 0,0
19.07.2019 10:00:00 21,9 11,0 25,3 21,9 18,8 5 3 14 8 ENE 1017,2 18 60 0,0
19.07.2019 09:00:00 19,4 10,9 21,4 22,0 18,8 4 2 9 5 E 1018,0 17 60 0,0
19.07.2019 08:00:00 17,3 10,9 15,3 22,0 18,8 5 3 12 6 NE 1018,0 16 60 0,0
19.07.2019 07:00:00 14,8 10,6 9,4 22,0 18,8 2 1 8 4 N 1018,1 23 20 0,0
19.07.2019 06:00:00 13,6 10,4 9,3 22,1 18,8 2 1 11 6 ENE 1018,1 20 0 0,0
19.07.2019 05:00:00 15,0 10,2 11,8 22,1 18,8 10 5 13 7 N 1017,9 29 0 0,0
19.07.2019 04:00:00 16,1 10,6 12,9 22,1 18,8 4 2 6 3 N 1017,6 39 0 0,0
19.07.2019 03:00:00 16,0 10,5 12,8 22,1 18,8 3 2 8 4 E 1017,7 38 0 0,0
19.07.2019 02:00:00 17,0 10,6 12,9 22,1 18,8 4 2 8 5 SE 1017,5 41 0 0,0
19.07.2019 01:00:00 17,6 10,5 13,9 22,0 18,8 6 3 9 5 SSE 1017,5 41 0 0,0
19.07.2019 00:00:00 18,7 10,5 14,7 22,0 18,8 4 2 14 7 ESE 1016,9 41 0 0,0
18.07.2019 23:00:00 20,0 11,0 16,8 21,9 18,8 8 4 22 12 N 1016,6 41 0 0,0
18.07.2019 22:00:00 22,0 9,8 20,4 21,9 18,8 9 5 28 15 NNW 1015,7 43 6 0,0
18.07.2019 21:00:00 23,9 8,7 23,5 21,9 18,8 13 7 34 18 WNW 1014,6 39 60 0,0
18.07.2019 20:00:00 25,7 7,8 27,8 21,8 18,8 20 11 33 18 W 1013,9 23 60 0,0
18.07.2019 19:00:00 26,2 7,2 28,0 21,8 18,8 15 8 32 17 WNW 1013,4 25 54 0,0
18.07.2019 18:00:00 26,7 7,7 28,8 21,8 18,8 16 9 31 17 W 1013,5 27 30 0,0
18.07.2019 17:00:00 27,4 6,2 29,7 21,8 18,8 12 6 29 16 NW 1013,2 22 48 0,0
18.07.2019 16:00:00 27,3 5,5 32,7 21,8 18,8 8 4 25 14 NNW 1013,4 23 58 0,0
18.07.2019 15:00:00 26,3 4,7 32,2 21,8 18,8 6 3 26 14 NW 1013,8 24 60 0,0
18.07.2019 14:00:00 25,9 4,9 32,5 21,8 18,8 13 7 26 14 NNE 1014,0 29 60 0,0
18.07.2019 13:00:00 25,5 2,2 29,3 21,9 18,8 14 8 26 14 N 1014,4 20 60 0,0
18.07.2019 12:00:00 24,6 1,5 28,2 21,9 18,8 10 5 34 19 NNW 1014,4 20 60 0,0
18.07.2019 11:00:00 23,9 2,7 27,6 21,9 18,8 14 7 29 15 WNW 1014,5 14 60 0,0
18.07.2019 10:00:00 23,4 5,3 27,2 21,9 18,8 9 5 18 10 N 1014,5 29 60 0,0
18.07.2019 09:00:00 21,9 10,1 22,5 22,0 18,8 4 2 10 5 WSW 1014,6 24 60 0,0
18.07.2019 08:00:00 19,1 10,6 14,6 21,9 18,8 4 2 9 5 E 1014,6 11 24 0,0
18.07.2019 07:00:00 16,8 9,9 13,9 22,0 18,8 5 3 8 4 SSE 1014,5 31 4 0,0
18.07.2019 06:00:00 19,0 9,7 15,1 22,0 18,8 5 3 15 8 ESE 1014,3 33 0 0,0
18.07.2019 05:00:00 20,0 9,8 18,3 22,0 18,8 10 5 16 9 SE 1013,8 39 0 0,0
18.07.2019 04:00:00 20,6 9,8 17,5 22,0 18,8 10 5 22 12 SE 1013,6 40 0 0,0
18.07.2019 03:00:00 21,4 9,9 17,8 21,9 18,8 11 6 15 8 E 1013,6 41 0 0,0
18.07.2019 02:00:00 21,5 9,7 16,6 21,9 18,8 6 4 22 12 WNW 1013,8 20 0 0,0
18.07.2019 01:00:00 22,8 8,1 18,6 21,9 18,8 10 5 19 10 NW 1013,5 41 0 0,0
18.07.2019 00:00:00 23,5 8,0 19,3 21,8 18,8 3 2 7 4 W 1013,0 38 0 0,0
17.07.2019 23:00:00 24,6 6,8 19,6 21,7 18,8 2 1 7 4 NNW 1012,8 36 0 0,0
17.07.2019 22:00:00 23,6 8,1 20,2 21,7 18,8 5 3 14 8 N 1012,5 15 0 0,0
17.07.2019 21:00:00 26,1 7,2 25,2 21,6 18,8 8 5 18 10 NE 1011,7 44 10 0,0
17.07.2019 20:00:00 27,6 6,9 27,9 21,6 18,8 10 6 23 12 NE 1011,0 38 13 0,0
17.07.2019 19:00:00 28,5 6,0 29,6 21,6 18,8 10 6 24 13 NE 1010,9 15 34 0,0
17.07.2019 18:00:00 29,4 6,1 32,7 21,6 18,8 13 7 26 14 NE 1011,0 35 44 0,0
17.07.2019 17:00:00 29,9 5,9 34,5 21,5 18,8 7 4 25 14 NNE 1011,2 41 54 0,0
17.07.2019 16:00:00 29,6 6,3 36,2 21,6 18,8 12 6 25 13 NNE 1011,7 20 60 0,0
17.07.2019 15:00:00 29,2 5,9 35,9 21,6 18,8 9 5 25 14 NNE 1012,1 36 60 0,0
17.07.2019 14:00:00 28,4 6,5 35,4 21,6 18,8 9 5 23 12 E 1012,6 41 60 0,0
17.07.2019 13:00:00 27,2 4,9 33,6 21,7 18,8 6 3 23 12 NE 1013,5 30 60 0,0
17.07.2019 12:00:00 25,6 6,2 31,9 21,7 18,8 6 4 13 7 N 1013,8 45 60 0,0
17.07.2019 11:00:00 24,4 7,1 27,4 21,7 18,8 5 3 11 6 N 1014,4 36 56 0,0
17.07.2019 10:00:00 22,1 7,9 23,8 21,8 18,8 5 3 11 6 E 1015,2 30 60 0,0
17.07.2019 09:00:00 19,3 7,7 18,8 21,8 18,8 4 2 8 4 NE 1015,6 12 58 0,0
17.07.2019 08:00:00 16,9 7,8 14,2 21,8 18,8 4 2 6 3 NNE 1016,0 31 39 0,0
17.07.2019 07:00:00 14,1 7,6 8,8 21,8 18,8 3 2 6 3 ESE 1016,2 28 21 0,0
17.07.2019 06:00:00 13,5 7,0 8,8 21,9 18,8 5 3 7 4 NNE 1016,1 29 0 0,0
17.07.2019 05:00:00 14,7 7,3 9,3 21,9 18,8 0 0 9 5 N 1015,8 33 0 0,0
17.07.2019 04:00:00 14,2 7,0 9,2 21,8 18,8 7 4 10 6 ESE 1016,0 38 0 0,0
17.07.2019 03:00:00 17,4 6,6 10,9 21,8 18,8 9 5 13 7 WNW 1015,9 30 0 0,0
17.07.2019 02:00:00 19,9 5,9 11,7 21,8 18,8 6 4 11 6 WNW 1016,0 29 0 0,0
17.07.2019 01:00:00 19,3 6,4 11,7 21,8 18,8 5 3 7 4 W 1016,2 29 0 0,0
17.07.2019 00:00:00 20,9 6,4 13,7 21,7 18,8 2 1 9 5 WSW 1015,8 32 0 0,0
16.07.2019 23:00:00 21,6 6,7 14,5 21,7 18,8 4 2 9 5 NW 1015,4 35 0 0,0
16.07.2019 22:00:00 22,2 7,2 18,0 21,6 18,8 5 3 15 8 N 1014,9 16 8 0,0
16.07.2019 21:00:00 25,3 6,9 25,1 21,6 18,8 9 5 18 10 NNE 1014,2 41 60 0,0
16.07.2019 20:00:00 27,3 6,1 29,7 21,5 18,8 10 5 25 13 NNE 1013,9 44 58 0,0
16.07.2019 19:00:00 28,6 4,8 31,4 21,5 18,8 7 4 17 9 NE 1013,7 38 55 0,0
16.07.2019 18:00:00 28,8 5,0 29,3 21,5 18,8 9 5 21 11 NNW 1013,8 15 33 0,0
16.07.2019 17:00:00 28,6 4,8 35,3 21,5 18,8 10 6 20 11 NNW 1014,3 35 60 0,0
16.07.2019 16:00:00 28,4 4,6 32,6 21,5 18,8 8 4 21 12 N 1014,7 18 60 0,0
16.07.2019 15:00:00 26,7 5,0 33,0 21,5 18,8 5 3 19 10 NNW 1015,1 38 57 0,0
16.07.2019 14:00:00 26,3 5,8 31,9 21,6 18,8 6 4 17 9 NNW 1015,6 27 60 0,0
16.07.2019 13:00:00 24,8 7,4 31,0 21,6 18,8 7 4 24 13 NNE 1016,1 41 60 0,0
16.07.2019 12:00:00 23,3 9,7 30,2 21,7 18,8 9 5 17 9 NNE 1016,8 17 60 0,0
16.07.2019 11:00:00 21,8 10,3 28,0 21,7 18,8 5 3 18 10 N 1017,3 32 60 0,0
16.07.2019 10:00:00 20,1 9,6 23,5 21,8 18,8 6 3 14 8 ENE 1017,8 20 60 0,0
16.07.2019 09:00:00 18,5 9,0 20,9 21,8 18,8 8 4 14 8 E 1018,1 22 60 0,0
16.07.2019 08:00:00 17,5 9,6 13,8 21,8 18,8 3 2 6 3 NE 1018,0 24 60 0,0
16.07.2019 07:00:00 12,9 9,0 7,0 21,9 18,8 3 2 6 3 ENE 1018,2 18 22 0,0
16.07.2019 06:00:00 12,4 8,1 7,1 21,9 18,8 2 1 6 3 E 1018,2 26 0 0,0
16.07.2019 05:00:00 14,1 8,7 8,1 21,9 18,8 0 0 4 2 N 1017,8 29 0 0,0
16.07.2019 04:00:00 13,4 8,0 8,6 21,9 18,8 0 0 6 3 N 1017,8 32 0 0,0
16.07.2019 03:00:00 15,5 7,5 9,8 21,9 18,8 2 1 9 5 S 1017,6 34 0 0,0
16.07.2019 02:00:00 17,7 8,3 12,9 21,9 18,8 4 2 7 4 SSE 1017,5 37 0 0,0
16.07.2019 01:00:00 18,7 8,4 14,7 21,9 18,8 2 1 6 3 SE 1017,4 39 0 0,0
16.07.2019 00:00:00 19,1 8,1 15,0 21,9 18,8 4 2 14 7 ENE 1016,9 40 0 0,0
15.07.2019 23:00:00 19,8 7,8 16,4 21,8 18,8 6 3 13 7 NW 1016,7 43 0 0,0
15.07.2019 22:00:00 21,0 8,3 18,0 21,8 18,8 7 4 16 9 N 1016,0 30 8 0,0
15.07.2019 21:00:00 23,1 7,6 23,4 21,7 18,8 11 6 34 18 N 1015,2 29 60 0,0
15.07.2019 20:00:00 24,4 7,1 25,3 21,7 18,8 14 8 33 18 N 1014,7 20 58 0,0
15.07.2019 19:00:00 24,0 7,2 25,4 21,7 18,8 14 7 30 16 N 1014,6 21 39 0,0
15.07.2019 18:00:00 24,7 7,3 26,2 21,7 18,8 16 9 36 20 N 1014,5 33 37 0,0
15.07.2019 17:00:00 23,9 7,5 25,3 21,7 18,8 17 9 41 22 N 1014,8 17 31 0,0
15.07.2019 16:00:00 25,1 7,7 29,7 21,7 18,8 17 9 41 22 NNE 1014,6 20 57 0,0

tt = Température de l'air
td = dewpoint
tt 5cm = Température de l'air 5cm
tt -20cm = Température de l'air -20cm
tt -100cm = Température de l'air -100cm
ff = Vitesse du vent
fx = gusts
dd = Direction du vent
ppp = reduced air pressure
vv = visibility
sd = Ensoleillement
rr = Quantités de précipitations

stations d'obs. à proximité